Location: Bazinghen
(50.8246°N, 1.6616°E)
Time: 09:20:59
(UTC+00:00)

Cosmos 1980 Rocket - Pass Details

Date: 09 April 2020
Orbit: 829 x 850 km, 71.0° (Epoch: 24 May)

Event Time Altitude Azimuth Distance (km) Brightness Sun altitude
Rises 23:19:34 0° 321° (NW) 3,391 6.2 -30.7°
Reaches altitude 10° 23:22:33 10° 306° (NW) 2,455 5.1 -30.7°
Enters shadow 23:25:49 20° 271° (W) 1,830 4.0 -30.8°
